Home > Weather > Arnhem > Past weeks

Flag for Netherlands Past Weather in Arnhem, Netherlands — Yesterday and Last 2 Weeks

Now
64 °F

Broken clouds.


Feels Like: 64 °F
Forecast: 59 / 67 °F
Wind: 10 mph from Northeast

Location: Deelen

Current Time: May 29, 2016 at 7:32:13 PM

Latest Report: May 29, 2016 at 6:55 PM


Visibility: N/A

Pressure: 29.74 "Hg

Humidity: 83%

Dew Point: 59 °F

Location of ArnhemLocation

Past Weather in Arnhem — Graph

°F

Arnhem Temperature Yesterday

Maximum temperature yesterday: 75 °F (at 5:55 PM)
Minimum temperature yesterday: 55 °F (at 2:25 AM)
Average temperature yesterday: 64 °F

High & Low Weather Summary for the Past Weeks

 TemperatureHumidityPressure
High75 °F (May 21, 5:25 PM)100% (May 16, 3:55 AM)30.12 "Hg (May 16, 3:55 AM)
Low34 °F (May 16, 3:55 AM)41% (May 21, 6:25 PM)29.65 "Hg (May 18, 7:55 PM)
Average56 °F79%29.94 "Hg
* Reported May 14 6:25 PM — May 29 6:25 PM, Arnhem, Weather by CustomWeather, © 2016

Note: Actual official high and low records may vary slightly from our data, if they occured in-between our weather recording intervals... More about our weather records

Advertising

Arnhem Weather History for the Previous 24 Hours

Scroll right to see more
 ConditionsComfort  
Time TempWeatherWind HumidityBarometerVisibility
6:25 PM
Sun, May 29
66 °FBroken clouds.13 mph83%29.74 "HgN/A
5:55 PM66 °FMore clouds than sun.8 mph78%29.74 "HgN/A
5:25 PM64 °FRain. Overcast.12 mph83%29.74 "HgN/A
4:55 PM68 °FBroken clouds.12 mph73%29.74 "HgN/A
4:25 PM66 °FPartly sunny.12 mph78%29.77 "HgN/A
3:55 PM64 °FFog.5 mph94%29.77 "Hg5 mi
3:25 PM64 °FLots of rain. Partly sunny.8 mph88%29.77 "Hg4 mi
2:55 PM68 °FBroken clouds.8 mph73%29.77 "HgN/A
2:25 PM68 °FScattered clouds.10 mph78%29.77 "HgN/A
1:55 PM68 °FPartly sunny.13 mph73%29.77 "HgN/A
1:25 PM68 °FPartly sunny.9 mph78%29.77 "HgN/A
12:55 PM66 °FPartly sunny.10 mph78%29.77 "HgN/A
12:25 PM66 °FBroken clouds.7 mph78%29.77 "HgN/A
11:55 AM64 °FPartly sunny.7 mph83%29.77 "HgN/A
11:25 AM64 °FOvercast.8 mph83%29.77 "HgN/A
10:55 AM64 °FPartly sunny.10 mph78%29.77 "HgN/A
10:25 AM64 °FPartly sunny.9 mph78%29.77 "HgN/A
9:55 AM63 °FOvercast.9 mph83%29.77 "HgN/A
9:25 AM63 °FOvercast.8 mph83%29.77 "HgN/A
8:55 AM61 °FOvercast.8 mph88%29.77 "HgN/A
8:25 AM61 °FOvercast.9 mph83%29.77 "HgN/A
7:55 AM59 °FPassing clouds.10 mph88%29.77 "HgN/A
7:25 AM57 °FScattered clouds.10 mph94%29.77 "HgN/A
6:55 AM57 °FPassing clouds.7 mph88%29.77 "HgN/A
6:25 AM57 °FCool.3 mph88%29.77 "HgN/A
5:55 AM55 °FFog.3 mph94%29.80 "Hg6 mi
5:25 AM55 °FFog.2 mph94%29.80 "Hg5 mi
4:55 AM57 °FFog.7 mph88%29.80 "Hg6 mi
4:25 AM57 °FFog.8 mph94%29.80 "Hg6 mi
3:55 AM59 °FFog.9 mph88%29.80 "Hg6 mi
3:25 AM59 °FFog.8 mph88%29.80 "Hg5 mi
2:55 AM59 °FFog.9 mph88%29.80 "Hg5 mi
2:25 AM59 °FFog.8 mph94%29.83 "Hg4 mi
1:55 AM59 °FFog.8 mph94%29.83 "Hg5 mi
1:25 AM61 °FFog.10 mph88%29.83 "Hg5 mi
12:55 AM61 °FFog.10 mph88%29.83 "Hg5 mi
12:25 AM61 °FFog.10 mph88%29.83 "Hg5 mi
11:55 PM
Sat, May 28
63 °FFog.10 mph83%29.83 "Hg6 mi
11:25 PM63 °FHaze.9 mph83%29.83 "Hg6 mi
10:55 PM63 °FOvercast.8 mph83%29.86 "HgN/A
10:25 PM64 °FMild.8 mph78%29.86 "HgN/A
9:55 PM64 °FPartly sunny.7 mph78%29.86 "HgN/A
9:25 PM66 °FPassing clouds.8 mph73%29.86 "HgN/A
8:55 PM68 °FMild.7 mph69%29.86 "HgN/A
8:25 PM70 °FOvercast.8 mph64%29.86 "HgN/A
7:55 PM70 °FBroken clouds.5 mph64%29.86 "HgN/A
7:25 PM72 °FMostly cloudy.2 mph57%29.86 "HgN/A
Weather by CustomWeather, © 2016

See weather overviewHow to use our weather pages